Location: Brunembert
(50.7122°N, 1.8935°E)
Time: 03:16:35
(UTC+00:00)

CZ-4C R/B - Pass Details

Date: 22 April 2021
Orbit: 612 x 1390 km, 63.4° (Epoch: 06 May)

Event Time Altitude Azimuth Distance (km) Brightness Sun altitude
Rises 20:40:16 0° 279° (W) 3,285 6.3 -14.4°
Reaches altitude 10° 20:42:52 10° 292° (WNW) 2,468 5.8 -14.7°
Maximum altitude 20:47:48 28° 351° (N) 1,714 4.4 -15.3°
Drops below altitude 10° 20:53:37 10° 48° (NE) 2,944 5.0 -16.0°
Sets 20:57:02 0° 60° (ENE) 4,040 5.6 -16.3°
